Location: Unspecified
(51.6250°N, 0.8230°E)
Time: 06:35:10
(UTC+00:00)

Resurs 1-4 Rocket - Visible Passes

Search period start: 19 March 2019 00:00
Search period end: 29 March 2019 00:00
Orbit: 800 x 813 km, 98.6° (Epoch: 17 March)

Date Brightness Start Highest point End Pass type
(mag) Time Alt. Az. Time Alt. Az. Time Alt. Az.
19 Mar 3.7 01:22:39 10° NNE 01:25:40 30° NE 01:25:40 30° NE visible
19 Mar 3.1 03:02:43 10° N 03:06:46 33° NW 03:06:46 33° NW visible
20 Mar 4.1 00:58:22 10° NNE 01:00:54 22° ENE 01:00:54 22° ENE visible
20 Mar 2.8 02:37:54 10° N 02:41:59 44° NNW 02:41:59 44° NNW visible
20 Mar 4.1 04:19:58 10° NNW 04:21:45 12° NW 04:23:04 11° WNW visible
21 Mar 4.5 00:34:22 10° NE 00:36:07 16° ENE 00:36:07 16° ENE visible
21 Mar 2.7 02:13:12 10° NNE 02:17:12 51° N 02:17:12 51° N visible
21 Mar 3.8 03:54:19 10° NNW 03:57:34 17° NW 03:58:18 16° WNW visible
22 Mar 4.8 00:11:10 10° ENE 00:11:20 10° ENE 00:11:20 10° ENE visible
22 Mar 3.0 01:48:37 10° NNE 01:52:26 47° NE 01:52:26 47° NE visible
22 Mar 3.4 03:29:10 10° N 03:33:19 24° WNW 03:33:31 24° WNW visible
23 Mar 3.4 01:24:09 10° NNE 01:27:39 35° NE 01:27:39 35° NE visible
23 Mar 3.0 03:04:13 10° N 03:08:44 34° WNW 03:08:44 34° WNW visible
24 Mar 3.9 00:59:50 10° NNE 01:02:52 25° ENE 01:02:52 25° ENE visible
24 Mar 2.6 02:39:25 10° N 02:43:58 48° NW 02:43:58 48° NW visible
24 Mar 4.2 04:21:37 10° NNW 04:23:13 11° NW 04:24:49 10° WNW visible
25 Mar 4.3 00:35:49 10° NE 00:38:06 17° ENE 00:38:06 17° ENE visible
25 Mar 2.4 02:14:42 10° NNE 02:19:11 62° N 02:19:11 62° N visible
25 Mar 3.8 03:55:52 10° NNW 03:59:02 16° NW 04:00:16 15° WNW visible
26 Mar 4.7 00:12:30 10° ENE 00:13:19 11° ENE 00:13:19 11° ENE visible
26 Mar 2.6 01:50:06 10° NNE 01:54:24 56° NE 01:54:24 56° NE visible
26 Mar 3.4 03:30:42 10° N 03:34:46 23° WNW 03:35:30 22° WNW visible
27 Mar 3.1 01:25:37 10° NNE 01:29:38 41° ENE 01:29:38 41° ENE visible
27 Mar 3.0 03:05:44 10° N 03:10:26 33° WNW 03:10:43 33° WNW visible
28 Mar 3.7 01:01:18 10° NNE 01:04:51 28° ENE 01:04:51 28° ENE visible
28 Mar 2.5 02:40:55 10° N 02:45:56 49° WNW 02:45:56 49° WNW visible
28 Mar 4.2 04:23:15 10° NNW 04:24:40 11° NW 04:26:04 10° WNW visible
